User: anonymous   Login
Location: *
(50.2903°S, 172.5375°W)
Time: 01:42:40
(UTC+00:00)
Language:

ERS-2 - Orbit

View from above orbital plane
View from above orbital plane
View from above satellite
View from above satellite

Ground track
Ground track

The orbit data is extracted from the following two-line orbital elements,

1 23560U 95021A   20021.28053866 +.00000603 +00000-0 +29458-4 0  9997
2 23560 098.5202 154.7540 0002711 337.1374 022.9738 15.22973758319563
Epoch (UTC): 21 January 2020 06:43:58
Eccentricity: 0.0002711
inclination: 98.5202°
perigee height: 495 km
apogee height: 499 km
right ascension of ascending node: 154.7540°
argument of perigee: 337.1374°
revolutions per day: 15.22973758
mean anomaly at epoch: 22.9738°
orbit number at epoch: 31956

The dashed part of the orbit path shows where the satellite is in the earth's shadow,  

DLR